Погода в Кунграде

Погода в Кунграде : погода сейчас, прогноз погоды и архив. Всё, что Вы хотите узнать о погоде в Кунграде!

Хотите узнать прогноз погоды в Кунграде? Тогда Вам сюда: Погода в Кунграде

Поиск расширенной информации на нашем сайте:

Полезная информация: веник сорго

Другие новости

Новости СМИ2

Главная страница сайта

Новости сайта

02.10.2013

Напоминаем, что на нашем новом сайте вы можете получить высокодетализированные прогнозы погоды по пунктам России, СНГ и мира (включающие важные для авиации метеовеличины, такие как направление и скорость ветра, видимость, явления погоды, количество и форма облачности, нижняя и верхняя граница облачности), а также ознакомиться с разнообразными материалами по авиационной метеорологии и подборкой полезных ссылок на эту тему.

Сайт Метеоцентр.Азия посвящён разработке технологий оптимизации авиаметеорологического обслуживания, включая проектирование и перспективное создание нескольких автоматизированных авиаметеорологических систем:
- система выпуска высокодетальных прогностических карт явлений погоды для нижнего воздушного пространства по России и ближнему зарубежью;
- система верификации прогнозов TAF (выпускаемых синоптиками официальных АМСГ РФ и ближнего зарубежья) и AUTOTAF (выпускаемых сайтом Метеоцентр.Азия) - выявление ошибок, онлайн-сопоставление с фактической погодой METAR, автоматическое внесение коррективов в прогнозы при резком отклонении фактической погоды от прогноза, подсчёт оправдываемости прогнозов по элементам и в целом;
- система обработки, анализа и отображения авиаметеорологической информации для применения провайдерами метеорологической информации.

Рекомендуем: купоны airbnb 2017

Погода в Кунграде - сегодня

Время (UTC), дата Ветер
(°,м/с) 
Видим.   Явления Облачность Т
(°С)
Тd
(°С)
f(%) Тe
(°С)
Pmin
(гПа)
dP
(гПа)
Po
(мм)
O2
(г/м3)
Тmin Tmax R s Состояние
почвы
09 23.02.17 270 (З) 20000 м    8/0 средняя 
[Ac trans]
+5.9 +1.1 71 +5  1016.9  757  298           
12 23.02.17 240 (ЮЗ) 20000 м    3/0 средняя 
[Ac trans]
+4.7 -0.7 68 +4  1015.8  -1.1  756  300           
15 23.02.17 240 (ЮЗ) 20000 м    3/0 верхняя 
[Ci sp]
+0.7 -4.3 69 +1  1016.1  0.2  756  304    +6.1       
18 23.02.17 тихо ()   20000 м    ясно 
-0.9 -5.5 71 -1  1016  -0.1  756  306    +6.1       
21 23.02.17 тихо ()   20000 м    ясно 
-1.5 -5.9 72 -2  1015.5  -0.5  756  307           
00 24.02.17 090 (В) 20000 м    8/8 600 м 
[Sc]
+0.3 -3.9 73 -1  1013.5  -2  754  304           
03 24.02.17 240 (ЮЗ) 4000 м  дымка  10/10 600 м 
[Sc]
+2.3 -0.5 82 1013.6  0.2  754  301           
06 24.02.17 220 (ЮЗ) 2000 м  дымка  9/9 600 м 
[Sc]
+4.3 +0.6 77 +1  1015.9  2.3  756  300  -1.5         
09 24.02.17 240 (ЮЗ) 20000 м    9/8 600 м верхняя 
[Sc|Ci sp]
+6.1 +1.6 73 +4  1015.8  -0.1  756  298           
12 24.02.17 230 (ЮЗ) 20000 м    10/10 600 м 
[Sc]
+7.3 +0.2 61 +5  1015.5  -0.2  756  297           
15 24.02.17 200 (Ю) 20000 м    10/10 600 м 
[Sc]
+6.7 +1.8 71 +7  1017.8  2.2  758  298    +7.5       
18 24.02.17 тихо ()   20000 м  {дождь}  ясно 
+3.7 -0.3 75 +4  1019.1  1.3  759  302    +7.5       
21 24.02.17 тихо ()   20000 м    ясно 
+1.7 -1.7 78 +2  1020.9  1.7  760  304           
00 25.02.17 тихо ()   20000 м    ясно 
+0.7 -2.2 81 +1  1022.4  1.4  761  306           
06 25.02.17 тихо ()   20000 м    ясно 
-5.3 -0.5 100 -5  1026.9  764  314  -3.2    0.0     
09 25.02.17 190 (Ю) 20000 м    6/0 
[Cu hum]
+9.4 -0 52 +9  1027.3  0.6  765  298           
12 25.02.17 190 (Ю) 20000 м    3/0 верхняя 
[Ci fib]
+11.2 +0.6 48 +11  1026.4  -0.9  764  296           
15 25.02.17 120 (ЮВ) 20000 м    ясно 
+6.5 -0.9 59 +6  1026.7  0.1  764  301    +11.7       
18 25.02.17 120 (ЮВ) 20000 м    ясно 
+3.3 -3.1 63 +2  1026.3  -0.4  764  304    +11.7       
21 25.02.17 130 (ЮВ) 20000 м    ясно 
+2.9 -2 70 1026.2  -0.1  764  305           
00 26.02.17 130 (ЮВ) 20000 м    ясно 
+0.7 -2.9 77 -1  1024  -2.3  762  307           
03 26.02.17 120 (ЮВ) 20000 м    ясно 
+0.3 -2.1 84 -1  1023  -1  761  307           
06 26.02.17 090 (В) 20000 м    ясно 
+10.4 +4.1 65 +9  1020.2  -2.5  759  294  +0.3         
09 26.02.17 180 (Ю) 20000 м    ясно 
+15.8 +5.3 50 +15  1016.9  -3.1  757  288           
12 26.02.17 180 (Ю) 20000 м    ясно 
+18.6 +7.7 49 +19  1014.2  -1.9  756  284           
Время (UTC), дата Ветер
(°,м/с) 
Видим.   Явления Облачность Т
(°С)
Тd
(°С)
f(%) Тe
(°С)
Pmin
(гПа)
dP
(гПа)
Po
(мм)
O2
(г/м3)
Тmin Tmax R s Состояние
почвы

Для получения пояснительной информации подведите курсор к названию столбца.

ПОГОДА в Кунграде - архив

Всё, что Вы хотите узнать о погоде в Кунграде - удобно и подробно!

Выберите нужную дату (начиная с 1 января 2015* года) и нажмите кнопку "Найти".
Будут отображены архивные сводки погоды по пункту Кунград, начиная с указанной даты.


Отображать данные в формате CSV (для использования в таблицах Excel)


Внимание! Наш архив погоды предназначен исключительно для личного некоммерческого использования в познавательных целях. Если Вам необходимы официальные справки о состоянии погоды (для производственных, юридических, коммерческих и т.п. целей), обращайтесь в органы Росгидромета.

*Примечание: данная дата относится к архиву по метеостанциям СССР (Россия, СНГ, Балтия).
Архив по метеостанциям Зарубежной Европы и Азии (кроме Китая) хранится 10 дней, по другим регионам земного шара (Китай, Африка, Америка, Австралия, Океания) - 1 день.

Кунград - район местоположения метеостанции


Название, широта, долгота, высота метеостанции:
Кунград 43.1°ш. 58.9°д. 64 м над ур. моря [Узбекистан]

Дополнительная информация

В oтличие oт бoльшинства пoгoдных сайтoв мы публикуем пoдрoбную метеoинфoрмацию в детальнoм прoфессиoнальнoм фoрмате.

Характеристики температуры и влажнoсти вoздуха измеряются на высoте 2 м в тени вдали oт зданий и деревьев.
Скoрoсть ветра измеряется на высoте 10 м (на урoвне рoста челoвека скoрoсть ветра ниже в 1.5-2 раза). Если метеoстанция нахoдится в гoрoде или в лесу, тo скoрoсть ветра занижена на 2-4 м/с пo сравнению с oткрытым местoм. Скoрoсть ветра над акватoриями крупных рек и oзёр, а также на вершинах хoлмoв на 2-5 м/с выше, чем в oбычных услoвиях.
Атмoсфернoе давление в разных тoчках местнoсти мoжет значительнo oтличаться oт давления на метеoстанции, в зависимoсти oт услoвий рельефа (при пoдъёме на 10 м давление пoнижается примернo на 1 мм рт.ст.).